User: anonymous   Login
Location: Unspecified
(0.0000°N, 0.0000°E)
Time: 17:26:13
(UTC+00:00)
Language:

M-CUBED/EXP-1 PRIME - Orbit

View from above orbital plane
View from above orbital plane
View from above satellite
View from above satellite

Ground track
Ground track

The orbit data is extracted from the following two-line orbital elements,

1 37855U 11061F   18116.32954540  .00000719  00000-0  45072-4 0  9995
2 37855 101.7212 152.3355 0176881 235.6420 122.7950 15.04287405353857
Epoch (UTC): 26 April 2018 07:54:32
Eccentricity: 0.0176881
inclination: 101.7212°
perigee height: 431 km
apogee height: 676 km
right ascension of ascending node: 152.3355°
argument of perigee: 235.6420°
revolutions per day: 15.04287405
mean anomaly at epoch: 122.7950°
orbit number at epoch: 35385

The dashed part of the orbit path shows where the satellite is in the earth's shadow,  

DLR